Regional Weather Roundup
Issued by NWS

Home | Current Version | Previous Version | Text Only | Print | Product List | Glossary Off
Versions: 1 2 3 4 5 6 7 8 9 10 11 12 13 14 15 16 17 18 19 20 21 22 23 24 25 26 27 28 29 30 31 32 33 34 35 36 37 38 39 40 41 42 43 44 45 46 47 48 49 50

000
ASUS43 KLOT 290006
RWRIL

ILLINOIS REGIONAL WEATHER ROUNDUP
NATIONAL WEATHER SERVICE CHICAGO/ROMEOVILLE IL
600 PM CST SUN DEC 28 2014

NOTE: "FAIR" INDICATES FEW OR NO CLOUDS BELOW 12,000 FEET WITH NO
SIGNIFICANT WEATHER AND/OR OBSTRUCTIONS TO VISIBILITY.

* THESE STATIONS ARE NOT UNDER NWS QUALITY CONTROL. THEY ALSO MAY NOT
  REPORT WEATHER SUCH AS PRECIPITATION OR FOG.

ILZ001-002-007-009-015-016-024-290100-
NORTHWEST ILLINOIS

CITY           SKY/WX    TMP DP  RH WIND       PRES   REMARKS
MOLINE         CLEAR     23  19  85 CALM      30.18S
6HR MIN TEMP:  23; 6HR MAX TEMP:  36;

STERLING*      CLEAR     25  16  68 CALM      30.19S
SAVANNA*       CLEAR     29  19  67 CALM      30.19S
$$

ILZ003-004-008-010-011-017-018-290100-
NORTH CENTRAL ILLINOIS

CITY           SKY/WX    TMP DP  RH WIND       PRES   REMARKS
ROCKFORD       CLEAR     29  18  63 W3        30.20R
6HR MIN TEMP:  28; 6HR MAX TEMP:  35;

FREEPORT*      CLEAR     27  19  73 SW3       30.20R
ROCHELLE*      CLEAR     26  22  85 SW5       30.19S WCI  20
DE KALB*       CLEAR     25  17  72 CALM      30.18S
PERU*          CLEAR     30  17  59 CALM      30.20S
$$

ILZ005-006-012>014-019>023-290100-
NORTHEAST ILLINOIS

CITY           SKY/WX    TMP DP  RH WIND       PRES   REMARKS
CHICAGO-OHARE  CLEAR     30  16  56 CALM      30.18R
6HR MIN TEMP:  28; 6HR MAX TEMP:  35;

CHICAGO-MIDWAY CLEAR     31  18  58 SW8       30.19R WCI  23
6HR MIN TEMP:  29; 6HR MAX TEMP:  36;

AURORA         CLEAR     28  18  66 SW5       30.19R WCI  23
6HR MIN TEMP:  28; 6HR MAX TEMP:  35;

LANSING*       CLEAR     28  18  66 SW3       30.20R
JOLIET*        CLEAR     23  18  80 CALM      30.21R
WAUKEGAN       CLEAR     26  15  63 CALM      30.18R
6HR MIN TEMP:  25; 6HR MAX TEMP:  35;

DUPAGE AIRPORT CLEAR     26  17  68 SW3       30.18R
6HR MIN TEMP:  26; 6HR MAX TEMP:  35;

KANKAKEE*      CLEAR     27  20  75 CALM      30.21R
WHEELING       CLEAR     31  16  54 CALM      30.20R
6HR MIN TEMP:  30; 6HR MAX TEMP:  36;

MORRIS*        CLEAR     29  18  64 SW3       30.20R
ROMEOVILLE*    CLEAR     27  18  70 SW5       30.20R WCI  21
NORTHERLY ISL    N/A     32  17  54 S6          N/A  WCI  26
$$

LMZ740>746-290100-
SOUTHERN LAKE MICHIGAN

STATION/POSITION SKY/WX   TEMP    WIND        PRES    VSBY  WAVE
                          AIR SEA DIR/SP/G                  HT/PER
                          (F)     (DEG/KT/KT) (MB)    (MI)  (FT/S)
WAUKEGAN HARBOR            31        CALM       N/A
HARRISON CRIB              34     270/  9/ 10   N/A
BURNHAM HARBOR             32     210/  3/  7   N/A
CALUMET HARBOR             31     210/  4/  7 1021.2R
MICHIGAN CITY              32     190/  5/  6   N/A
$$

ILZ025>027-034>036-040-047-049-050-058-095>099-290100-
WEST-CENTRAL ILLINOIS

CITY           SKY/WX    TMP DP  RH WIND       PRES   REMARKS
QUINCY         CLEAR     31  18  58 S3        30.19R
GALESBURG*     CLEAR     26  19  72 CALM      30.19R
MACOMB*        CLEAR     29  25  83 S3        30.22R
JACKSONVILLE*  CLEAR     31  22  67 CALM      30.21R
PITTSFIELD*    CLEAR     32  27  81 CALM      30.21R
$$

ILZ028>032-037-038-041>044-048-051>054-059>061-290100-
CENTRAL ILLINOIS

CITY           SKY/WX    TMP DP  RH WIND       PRES   REMARKS
PONTIAC        CLEAR     29  18  62 CALM      30.22R
BLOOMINGTON    CLEAR     28  21  75 CALM      30.21R
DECATUR        CLEAR     28  23  81 NE3       30.22R
PEORIA         CLEAR     30  17  58 SE5       30.20R WCI  25
6HR MIN TEMP:  29; 6HR MAX TEMP:  37;

LACON*         CLEAR     28  18  68 SE3       30.20S
LINCOLN*       CLEAR     29  24  80 CALM      30.22S
SPRINGFIELD    CLEAR     29  22  75 CALM      30.22R
6HR MIN TEMP:  29; 6HR MAX TEMP:  35;

TAYLORVILLE    CLEAR     28  27  93 CALM      30.22S
$$

ILZ033-039-045-046-055>057-062-063-290100-
EAST-CENTRAL ILLINOIS

CITY           SKY/WX    TMP DP  RH WIND       PRES   REMARKS
CHAMPAIGN      CLEAR     29  21  72 CALM      30.21R
DANVILLE*      CLEAR     26  24  91 CALM      30.19S
RANTOUL*       CLEAR     29  21  71 CALM      30.21R
MATTOON        CLEAR     28  23  81 CALM      30.21R
PARIS*         CLEAR     27  24  89 CALM      30.23R
$$

ILZ079-100>102-290100-
SOUTHWEST ILLINOIS

CITY           SKY/WX    TMP DP  RH WIND       PRES   REMARKS
BELLEVILLE     CLEAR     29  27  92 SE2       30.22R
CAHOKIA*       CLEAR     32  26  78 CALM      30.22R
SPARTA*        CLOUDY    32  27  82 CALM      30.22S
$$

ILZ064>066-069>071-074>076-080>082-084>086-088>090-092>094-290100-
SOUTH-CENTRAL ILLINOIS

CITY           SKY/WX    TMP DP  RH WIND       PRES   REMARKS
CARBONDALE     CLOUDY    33  26  75 N3        30.22S
6HR MIN TEMP:  33; 6HR MAX TEMP:  34;

CAIRO*         CLOUDY    37  31  79 N5        30.21F WCI  33
EFFINGHAM*     CLEAR     29  24  81 CALM      30.23S
MARION         CLOUDY    34  30  86 NW12      30.22F WCI  25
MT. VERNON     CLOUDY    32  23  69 CALM      30.22S
CENTRALIA*     CLOUDY    32  25  77 CALM      30.21S
SALEM*         CLEAR     32  27  83 CALM      30.22R
METROPOLIS*    CLOUDY    35  32  90 N6        30.21S WCI  30
$$

ILZ067-068-072-073-078-083-087-091-290100-
SOUTHEAST ILLINOIS

CITY           SKY/WX    TMP DP  RH WIND       PRES   REMARKS
LAWRENCEVILLE  MOCLDY    30  24  78 N5        30.23S WCI  25
FLORA*         MOCLDY    31  26  81 CALM      30.22S
FAIRFIELD*     MOCLDY    31  28  86 CALM      30.21F
HARRISBURG*    CLOUDY    33  29  85 N5        30.23F WCI  28
ROBINSON*      PTCLDY    29  25  83 CALM      30.24R
CARMI*         CLOUDY    33  31  92 NE3       30.22S
$$

ABBREVIATIONS USED IN REMARKS
   TC - TEMPERATURE IN CELSIUS
  WCI - WIND CHILL INDEX
   HX - HEAT INDEX
  VSB - VISIBILITY
$$




USA.gov is the U.S. government's official web portal to all federal, state and local government web resources and services.